星链-32422 (STARLINK-32422)

导读 | 星芒AI

STARLINK-32422 是 SpaceX 星链计划中的一颗低轨道通信卫星,属于该系列的第 32422 颗发射卫星。它主要用于提供全球范围内的高速互联网服务,特别是偏远和网络基础设施薄弱的地区。该卫星采用先进的推进和通信技术,具备自动避碰功能,以确保在拥挤的近地轨道上安全运行。作为星链星座的一部分,STARLINK-32422 有助于提升全球互联网接入的覆盖范围和稳定性。

基本信息
目录编号:
61592
目录名称:
STARLINK-32422
国际标识:
2024-187U
轨道中心:
EARTH
卫星名称:
星链-32422
卫星全名:
星链-32422 (STARLINK-32422)
卫星状态:
在轨 (已飞行382 天)
发射日期:
2024-10-18 UTC
国别 :
美国 (US)
星等 :
--
轨道信息
数据来源 国际轨道数据
星历时间: 2025-11-02T13:40:04+0800
2天前
查看轨道信息
半长轴: 6825.36km
偏心率: 0.0001453
轨道倾角: 53.163°
近地点辐角 95.437°
升交点赤经 283.989°
平近点角 264.680°
近地点: 446.233km
远地点: 448.217km
周期: 93.529分钟
每日圈数: 15.396233
详细信息
固有亮度:
5
最大亮度:
2.5
卫星平台:
Starlink V1.0
覆盖范围:
全球
运营商:
太空探索技术公司
运营商所在国:
美国
制造商(研发单位):
太空探索技术公司
制造商所在国:
美国
使用方式:
暂无
卫星简介
Starlink 计划是 SpaceX 推出的全球卫星互联网项目,通过发射低轨道卫星,为全球尤其是偏远地区提供高速、低延迟的互联网服务。自 2019 年起,Starlink 已部署数千颗卫星,旨在缩小全球数字鸿沟,推动互联网普及。该项目还为军事、航空等行业提供通信支持,带来广泛经济效益。
2D轨道图
3D轨道图
轨道高度分析图
轨道倾角分析图
轨道综合分析图
查看轨道综合分析图